Time,TemperatureF,DewpointF,PressureIn,WindDirection,WindDirectionDegrees,WindSpeedMPH,WindSpeedGustMPH,Humidity,HourlyPrecipIn,Conditions,Clouds,dailyrainin,SoftwareType,DateUTC
2013-01-01 00:00:00,36.9,36.1,30.05,NW,313,0.0,1.0,97,0.00,,,0.00,VWS V14.01,2013-01-01 06:00:00,
2013-01-01 00:05:00,36.8,36.0,30.05,WNW,288,0.0,2.0,97,0.00,,,0.00,VWS V14.01,2013-01-01 06:05:00,
2013-01-01 00:10:00,36.8,36.0,30.05,WNW,288,0.0,2.0,97,0.00,,,0.00,VWS V14.01,2013-01-01 06:10:00,
2013-01-01 00:15:00,36.8,36.0,30.05,WNW,290,0.0,2.0,97,0.00,,,0.00,VWS V14.01,2013-01-01 06:15:00,
2013-01-01 00:20:00,36.8,36.0,30.05,NW,305,0.0,2.0,97,0.00,,,0.00,VWS V14.01,2013-01-01 06:20:00,
2013-01-01 00:25:00,36.8,36.0,30.05,NW,322,1.0,2.0,97,0.00,,,0.00,VWS V14.01,2013-01-01 06:25:00,
2013-01-01 00:30:00,36.8,36.0,30.04,North,4,1.0,2.0,97,0.00,,,0.00,VWS V14.01,2013-01-01 06:30:00,
2013-01-01 00:35:00,36.7,35.9,30.04,NW,319,2.0,4.0,97,0.00,,,0.00,VWS V14.01,2013-01-01 06:35:00,
2013-01-01 00:40:00,36.7,35.9,30.04,NW,319,0.0,4.0,97,0.00,,,0.00,VWS V14.01,2013-01-01 06:40:00,
2013-01-01 00:45:00,36.7,35.9,30.04,WNW,301,0.0,4.0,97,0.00,,,0.00,VWS V14.01,2013-01-01 06:45:00,
2013-01-01 00:50:00,36.6,35.8,30.03,NNW,328,3.0,5.0,97,0.00,,,0.00,VWS V14.01,2013-01-01 06:50:00,
2013-01-01 00:55:00,36.6,35.8,30.03,WNW,293,0.0,5.0,97,0.00,,,0.00,VWS V14.01,2013-01-01 06:55:00,
2013-01-01 01:00:00,36.6,35.8,30.03,NNW,342,0.0,5.0,97,0.00,,,0.00,VWS V14.01,2013-01-01 07:00:00,
2013-01-01 01:05:00,36.6,35.8,30.04,NW,326,0.0,2.0,97,0.00,,,0.00,VWS V14.01,2013-01-01 07:05:00,
2013-01-01 01:10:00,36.6,35.8,30.04,NNW,330,0.0,2.0,97,0.00,,,0.00,VWS V14.01,2013-01-01 07:10:00,
2013-01-01 01:15:00,36.6,35.8,30.03,NNE,25,0.0,3.0,97,0.00,,,0.00,VWS V14.01,2013-01-01 07:15:00,
2013-01-01 01:20:00,36.5,35.7,30.03,NW,319,1.0,3.0,97,0.00,,,0.00,VWS V14.01,2013-01-01 07:20:00,
2013-01-01 01:25:00,36.5,35.7,30.03,NW,312,1.0,4.0,97,0.00,,,0.00,VWS V14.01,2013-01-01 07:25:00,
2013-01-01 01:30:00,36.5,35.7,30.03,WNW,294,3.0,5.0,97,0.00,,,0.00,VWS V14.01,2013-01-01 07:30:00,
2013-01-01 01:35:00,36.4,35.4,30.03,WNW,298,0.0,5.0,96,0.00,,,0.00,VWS V14.01,2013-01-01 07:35:00,
2013-01-01 01:40:00,36.4,35.4,30.04,NNW,327,2.0,5.0,96,0.00,,,0.00,VWS V14.01,2013-01-01 07:40:00,
2013-01-01 01:45:00,36.4,35.4,30.03,NNW,340,2.0,5.0,96,0.00,,,0.00,VWS V14.01,2013-01-01 07:45:00,
2013-01-01 01:50:00,36.4,35.4,30.04,NNW,348,2.0,5.0,96,0.00,,,0.00,VWS V14.01,2013-01-01 07:50:00,
2013-01-01 01:55:00,36.4,35.4,30.04,NNW,347,0.0,5.0,96,0.00,,,0.00,VWS V14.01,2013-01-01 07:55:00,
2013-01-01 02:00:00,36.4,35.6,30.05,NW,309,1.0,5.0,97,0.00,,,0.00,VWS V14.01,2013-01-01 08:00:00,
2013-01-01 02:05:00,36.4,35.6,30.04,West,271,0.0,1.0,97,0.00,,,0.00,VWS V14.01,2013-01-01 08:05:00,
2013-01-01 02:10:00,36.4,35.6,30.04,NNW,337,1.0,3.0,97,0.00,,,0.00,VWS V14.01,2013-01-01 08:10:00,
2013-01-01 02:15:00,36.5,35.7,30.04,NNE,23,2.0,4.0,97,0.00,,,0.00,VWS V14.01,2013-01-01 08:15:00,
2013-01-01 02:20:00,36.5,35.7,30.04,NNW,347,1.0,4.0,97,0.00,,,0.00,VWS V14.01,2013-01-01 08:20:00,
2013-01-01 02:25:00,36.5,35.7,30.03,NNE,13,1.0,4.0,97,0.00,,,0.00,VWS V14.01,2013-01-01 08:25:00,
2013-01-01 02:30:00,36.5,35.7,30.03,North,6,1.0,5.0,97,0.00,,,0.00,VWS V14.01,2013-01-01 08:30:00,
2013-01-01 02:35:00,36.5,35.7,30.03,NNW,330,0.0,5.0,97,0.00,,,0.00,VWS V14.01,2013-01-01 08:35:00,
2013-01-01 02:40:00,36.4,35.6,30.03,North,11,4.0,5.0,97,0.00,,,0.00,VWS V14.01,2013-01-01 08:40:00,
2013-01-01 02:45:00,36.4,35.4,30.03,North,6,2.0,5.0,96,0.00,,,0.00,VWS V14.01,2013-01-01 08:45:00,
2013-01-01 02:50:00,36.4,35.4,30.03,North,350,0.0,5.0,96,0.00,,,0.00,VWS V14.01,2013-01-01 08:50:00,
2013-01-01 02:55:00,36.4,35.6,30.03,NNE,18,0.0,5.0,97,0.00,,,0.00,VWS V14.01,2013-01-01 08:55:00,
2013-01-01 03:00:00,36.4,35.4,30.03,NE,51,1.0,5.0,96,0.00,,,0.00,VWS V14.01,2013-01-01 09:00:00,
2013-01-01 03:05:00,36.4,35.4,30.04,North,360,0.0,1.0,96,0.00,,,0.00,VWS V14.01,2013-01-01 09:05:00,
2013-01-01 03:10:00,36.4,35.4,30.05,North,360,0.0,1.0,96,0.00,,,0.00,VWS V14.01,2013-01-01 09:10:00,
2013-01-01 03:15:00,36.4,35.4,30.04,North,360,0.0,1.0,96,0.00,,,0.00,VWS V14.01,2013-01-01 09:15:00,
2013-01-01 03:20:00,36.4,35.4,30.05,North,359,0.0,1.0,96,0.00,,,0.00,VWS V14.01,2013-01-01 09:20:00,
2013-01-01 03:25:00,36.4,35.4,30.04,NNE,15,1.0,2.0,96,0.00,,,0.00,VWS V14.01,2013-01-01 09:25:00,
2013-01-01 03:30:00,36.4,35.4,30.04,NE,41,4.0,4.0,96,0.00,,,0.00,VWS V14.01,2013-01-01 09:30:00,
2013-01-01 03:35:00,36.5,35.5,30.04,NNW,342,0.0,4.0,96,0.00,,,0.00,VWS V14.01,2013-01-01 09:35:00,
2013-01-01 03:40:00,36.5,35.5,30.05,NNE,31,0.0,4.0,96,0.00,,,0.00,VWS V14.01,2013-01-01 09:40:00,
2013-01-01 03:45:00,36.5,35.5,30.04,NE,46,0.0,4.0,96,0.00,,,0.00,VWS V14.01,2013-01-01 09:45:00,
2013-01-01 03:50:00,36.5,35.5,30.03,NE,46,1.0,4.0,96,0.00,,,0.00,VWS V14.01,2013-01-01 09:50:00,
2013-01-01 03:54:00,36.5,35.5,30.04,NE,41,1.0,4.0,96,0.00,,,0.00,VWS V14.01,2013-01-01 09:54:00,
2013-01-01 03:59:00,36.4,35.4,30.04,NW,315,0.0,4.0,96,0.00,,,0.00,VWS V14.01,2013-01-01 09:59:00,
2013-01-01 04:00:00,36.4,35.4,30.04,NW,315,0.0,4.0,96,0.00,,,0.00,VWS V14.01,2013-01-01 10:00:00,
2013-01-01 04:04:00,36.4,35.4,30.04,NNW,347,0.0,3.0,96,0.00,,,0.00,VWS V14.01,2013-01-01 10:04:00,
2013-01-01 04:09:00,36.4,35.4,30.04,NNW,347,1.0,3.0,96,0.00,,,0.00,VWS V14.01,2013-01-01 10:09:00,
2013-01-01 04:14:00,36.4,35.4,30.04,NNE,26,0.0,3.0,96,0.00,,,0.00,VWS V14.01,2013-01-01 10:14:00,
2013-01-01 04:19:00,36.4,35.4,30.05,NNW,339,0.0,3.0,96,0.00,,,0.00,VWS V14.01,2013-01-01 10:19:00,
2013-01-01 04:24:00,36.4,35.4,30.05,WNW,295,0.0,3.0,96,0.00,,,0.00,VWS V14.01,2013-01-01 10:24:00,
2013-01-01 04:29:00,36.4,35.4,30.06,WNW,293,0.0,3.0,96,0.00,,,0.00,VWS V14.01,2013-01-01 10:29:00,
2013-01-01 04:34:00,36.4,35.4,30.06,NW,314,0.0,3.0,96,0.00,,,0.00,VWS V14.01,2013-01-01 10:34:00,
2013-01-01 04:39:00,36.4,35.4,30.05,NNE,28,0.0,3.0,96,0.00,,,0.00,VWS V14.01,2013-01-01 10:39:00,
2013-01-01 04:44:00,36.4,35.4,30.05,WNW,292,2.0,3.0,96,0.00,,,0.00,VWS V14.01,2013-01-01 10:44:00,
2013-01-01 04:49:00,36.4,35.4,30.05,NNW,347,1.0,3.0,96,0.00,,,0.00,VWS V14.01,2013-01-01 10:49:00,
2013-01-01 04:54:00,36.4,35.4,30.05,North,357,0.0,3.0,96,0.00,,,0.00,VWS V14.01,2013-01-01 10:54:00,
2013-01-01 04:59:00,36.4,35.4,30.06,WNW,293,0.0,3.0,96,0.00,,,0.00,VWS V14.01,2013-01-01 10:59:00,
2013-01-01 05:00:00,36.4,35.4,30.06,WNW,294,0.0,3.0,96,0.00,,,0.00,VWS V14.01,2013-01-01 11:00:00,
2013-01-01 05:04:00,36.4,35.4,30.06,WNW,295,0.0,2.0,96,0.00,,,0.00,VWS V14.01,2013-01-01 11:04:00,
2013-01-01 05:09:00,36.4,35.4,30.06,WNW,295,0.0,2.0,96,0.00,,,0.00,VWS V14.01,2013-01-01 11:09:00,
2013-01-01 05:14:00,36.4,35.4,30.08,WNW,294,0.0,2.0,96,0.00,,,0.00,VWS V14.01,2013-01-01 11:14:00,
2013-01-01 05:19:00,36.4,35.4,30.08,NW,321,2.0,2.0,96,0.00,,,0.00,VWS V14.01,2013-01-01 11:19:00,
2013-01-01 05:24:00,36.2,35.2,30.08,NW,319,1.0,4.0,96,0.00,,,0.00,VWS V14.01,2013-01-01 11:24:00,
2013-01-01 05:29:00,36.2,34.9,30.08,NW,306,2.0,4.0,95,0.00,,,0.00,VWS V14.01,2013-01-01 11:29:00,
2013-01-01 05:34:00,36.1,34.8,30.07,North,11,2.0,4.0,95,0.00,,,0.00,VWS V14.01,2013-01-01 11:34:00,
2013-01-01 05:39:00,36.0,34.7,30.06,North,356,1.0,4.0,95,0.00,,,0.00,VWS V14.01,2013-01-01 11:39:00,
2013-01-01 05:44:00,35.9,34.6,30.06,North,352,3.0,4.0,95,0.00,,,0.00,VWS V14.01,2013-01-01 11:44:00,
2013-01-01 05:49:00,35.8,34.8,30.08,NNW,341,1.0,4.0,96,0.00,,,0.00,VWS V14.01,2013-01-01 11:49:00,
2013-01-01 05:54:00,35.7,34.7,30.08,North,8,0.0,4.0,96,0.00,,,0.00,VWS V14.01,2013-01-01 11:54:00,
2013-01-01 05:59:00,35.7,34.7,30.08,NNE,13,1.0,4.0,96,0.00,,,0.00,VWS V14.01,2013-01-01 11:59:00,
2013-01-01 06:00:00,35.7,34.7,30.08,North,352,2.0,4.0,96,0.00,,,0.00,VWS V14.01,2013-01-01 12:00:00,
2013-01-01 06:04:00,35.7,34.7,30.08,North,355,1.0,5.0,96,0.00,,,0.00,VWS V14.01,2013-01-01 12:04:00,
2013-01-01 06:09:00,35.7,34.7,30.08,NNE,27,2.0,5.0,96,0.00,,,0.00,VWS V14.01,2013-01-01 12:09:00,
2013-01-01 06:14:00,35.7,34.7,30.09,NNW,330,1.0,6.0,96,0.00,,,0.00,VWS V14.01,2013-01-01 12:14:00,
2013-01-01 06:19:00,35.6,34.6,30.10,NNW,329,0.0,6.0,96,0.00,,,0.00,VWS V14.01,2013-01-01 12:19:00,
2013-01-01 06:24:00,35.6,34.6,30.09,NE,37,1.0,6.0,96,0.00,,,0.00,VWS V14.01,2013-01-01 12:24:00,
2013-01-01 06:29:00,35.6,34.6,30.10,North,6,2.0,6.0,96,0.00,,,0.00,VWS V14.01,2013-01-01 12:29:00,
2013-01-01 06:34:00,35.6,34.6,30.09,North,11,0.0,6.0,96,0.00,,,0.00,VWS V14.01,2013-01-01 12:34:00,
2013-01-01 06:39:00,35.6,34.6,30.10,NE,37,0.0,6.0,96,0.00,,,0.00,VWS V14.01,2013-01-01 12:39:00,
2013-01-01 06:44:00,35.6,34.6,30.11,NE,34,0.0,6.0,96,0.00,,,0.00,VWS V14.01,2013-01-01 12:44:00,
2013-01-01 06:49:00,35.6,34.6,30.10,NE,47,2.0,6.0,96,0.00,,,0.00,VWS V14.01,2013-01-01 12:49:00,
2013-01-01 06:54:00,35.6,34.6,30.09,NE,37,1.0,6.0,96,0.00,,,0.00,VWS V14.01,2013-01-01 12:54:00,
2013-01-01 06:59:00,35.6,34.6,30.10,North,6,1.0,6.0,96,0.00,,,0.00,VWS V14.01,2013-01-01 12:59:00,
2013-01-01 07:00:00,35.6,34.6,30.10,NNE,22,1.0,6.0,96,0.00,,,0.00,VWS V14.01,2013-01-01 13:00:00,
2013-01-01 07:04:00,35.6,34.6,30.10,North,9,1.0,2.0,96,0.00,,,0.00,VWS V14.01,2013-01-01 13:04:00,
2013-01-01 07:09:00,35.6,34.6,30.10,NNE,22,1.0,5.0,96,0.00,,,0.00,VWS V14.01,2013-01-01 13:09:00,
2013-01-01 07:14:00,35.6,34.6,30.09,NNE,27,1.0,5.0,96,0.00,,,0.00,VWS V14.01,2013-01-01 13:14:00,
2013-01-01 07:19:00,35.5,34.5,30.11,North,351,1.0,5.0,96,0.00,,,0.00,VWS V14.01,2013-01-01 13:19:00,
2013-01-01 07:24:00,35.4,34.4,30.11,North,360,2.0,5.0,96,0.00,,,0.00,VWS V14.01,2013-01-01 13:24:00,
2013-01-01 07:29:00,35.3,34.3,30.10,NNE,20,3.0,5.0,96,0.00,,,0.00,VWS V14.01,2013-01-01 13:29:00,
2013-01-01 07:34:00,35.1,34.1,30.09,NNE,16,2.0,6.0,96,0.00,,,0.00,VWS V14.01,2013-01-01 13:34:00,
2013-01-01 07:39:00,35.0,34.0,30.08,North,11,5.0,8.0,96,0.00,,,0.00,VWS V14.01,2013-01-01 13:39:00,
2013-01-01 07:44:00,34.8,33.8,30.08,NW,315,3.0,10.0,96,0.00,,,0.00,VWS V14.01,2013-01-01 13:44:00,
2013-01-01 07:49:00,34.7,33.7,30.08,North,6,7.0,10.0,96,0.00,,,0.00,VWS V14.01,2013-01-01 13:49:00,
2013-01-01 07:54:00,34.5,33.5,30.06,ENE,57,4.0,10.0,96,0.00,,,0.00,VWS V14.01,2013-01-01 13:54:00,
2013-01-01 07:59:00,34.4,33.4,30.07,NNE,28,2.0,10.0,96,0.00,,,0.00,VWS V14.01,2013-01-01 13:59:00,
2013-01-01 08:00:00,34.4,33.4,30.07,NE,34,6.0,10.0,96,0.00,,,0.00,VWS V14.01,2013-01-01 14:00:00,
2013-01-01 08:04:00,34.3,33.3,30.09,NE,51,3.0,6.0,96,0.00,,,0.00,VWS V14.01,2013-01-01 14:04:00,
2013-01-01 08:09:00,34.2,33.2,30.10,NW,326,3.0,8.0,96,0.01,,,0.01,VWS V14.01,2013-01-01 14:09:00,
2013-01-01 08:14:00,34.2,33.2,30.10,NNE,21,4.0,8.0,96,0.01,,,0.01,VWS V14.01,2013-01-01 14:14:00,
2013-01-01 08:19:00,34.2,33.4,30.10,NNW,338,4.0,8.0,97,0.01,,,0.01,VWS V14.01,2013-01-01 14:19:00,
2013-01-01 08:24:00,34.1,33.3,30.10,NNE,23,1.0,8.0,97,0.01,,,0.01,VWS V14.01,2013-01-01 14:24:00,
2013-01-01 08:29:00,34.1,33.3,30.11,NNW,333,0.0,8.0,97,0.01,,,0.01,VWS V14.01,2013-01-01 14:29:00,
2013-01-01 08:34:00,34.1,33.3,30.11,NE,38,2.0,8.0,97,0.01,,,0.01,VWS V14.01,2013-01-01 14:34:00,
2013-01-01 08:39:00,34.1,33.3,30.14,NNE,30,6.0,9.0,97,0.01,,,0.01,VWS V14.01,2013-01-01 14:39:00,
2013-01-01 08:44:00,34.0,33.2,30.14,North,352,2.0,9.0,97,0.01,,,0.01,VWS V14.01,2013-01-01 14:44:00,
2013-01-01 08:49:00,34.0,33.2,30.15,NNE,13,0.0,9.0,97,0.01,,,0.01,VWS V14.01,2013-01-01 14:49:00,
2013-01-01 08:54:00,34.0,33.2,30.14,NNE,16,3.0,9.0,97,0.01,,,0.01,VWS V14.01,2013-01-01 14:54:00,
2013-01-01 08:59:00,33.8,33.0,30.14,NNE,22,3.0,9.0,97,0.01,,,0.01,VWS V14.01,2013-01-01 14:59:00,
2013-01-01 09:00:00,33.8,33.0,30.14,North,359,1.0,9.0,97,0.01,,,0.01,VWS V14.01,2013-01-01 15:00:00,
2013-01-01 09:04:00,33.8,33.0,30.14,NNE,30,7.0,7.0,97,0.01,,,0.01,VWS V14.01,2013-01-01 15:04:00,
2013-01-01 09:09:00,33.7,32.9,30.14,NE,50,4.0,7.0,97,0.01,,,0.01,VWS V14.01,2013-01-01 15:09:00,
2013-01-01 09:14:00,33.7,32.9,30.14,NNE,27,3.0,8.0,97,0.01,,,0.01,VWS V14.01,2013-01-01 15:14:00,
2013-01-01 09:19:00,33.8,33.0,30.14,NNE,32,2.0,8.0,97,0.01,,,0.01,VWS V14.01,2013-01-01 15:19:00,
2013-01-01 09:24:00,33.7,32.9,30.14,NNE,32,3.0,8.0,97,0.01,,,0.01,VWS V14.01,2013-01-01 15:24:00,
2013-01-01 09:29:00,33.6,32.8,30.15,North,350,3.0,8.0,97,0.01,,,0.01,VWS V14.01,2013-01-01 15:29:00,
2013-01-01 09:34:00,33.6,32.6,30.15,NNW,334,2.0,8.0,96,0.01,,,0.01,VWS V14.01,2013-01-01 15:34:00,
2013-01-01 09:39:00,33.6,32.6,30.16,North,9,5.0,8.0,96,0.01,,,0.01,VWS V14.01,2013-01-01 15:39:00,
2013-01-01 09:44:00,33.6,32.6,30.16,ENE,59,4.0,8.0,96,0.01,,,0.01,VWS V14.01,2013-01-01 15:44:00,
2013-01-01 09:49:00,33.6,32.6,30.17,NE,39,0.0,8.0,96,0.01,,,0.01,VWS V14.01,2013-01-01 15:49:00,
2013-01-01 09:54:00,33.6,32.6,30.17,NE,36,2.0,8.0,96,0.01,,,0.01,VWS V14.01,2013-01-01 15:54:00,
2013-01-01 09:59:00,33.6,32.6,30.16,NNE,28,2.0,8.0,96,0.01,,,0.01,VWS V14.01,2013-01-01 15:59:00,
2013-01-01 10:00:00,33.6,32.6,30.16,NNE,13,2.0,8.0,96,0.01,,,0.01,VWS V14.01,2013-01-01 16:00:00,
2013-01-01 10:04:00,33.6,32.6,30.17,NNW,333,3.0,6.0,96,0.00,,,0.01,VWS V14.01,2013-01-01 16:04:00,
2013-01-01 10:09:00,33.6,32.6,30.17,NNE,18,2.0,7.0,96,0.00,,,0.01,VWS V14.01,2013-01-01 16:09:00,
2013-01-01 10:14:00,33.5,32.5,30.17,NNE,30,6.0,7.0,96,0.00,,,0.01,VWS V14.01,2013-01-01 16:14:00,
2013-01-01 10:24:00,33.5,32.5,30.16,NNE,28,4.0,4.0,96,0.00,,,0.01,Wunderground v.1.15,2013-01-01 16:24:00,
2013-01-01 10:29:00,33.5,32.5,30.16,ENE,75,2.0,7.0,96,0.00,,,0.01,VWS V14.01,2013-01-01 16:29:00,
2013-01-01 10:34:00,33.6,32.6,30.16,NNE,27,3.0,7.0,96,0.00,,,0.01,VWS V14.01,2013-01-01 16:34:00,
2013-01-01 10:39:00,33.6,32.6,30.17,NNE,16,1.0,7.0,96,0.00,,,0.01,VWS V14.01,2013-01-01 16:39:00,
2013-01-01 10:44:00,33.7,32.7,30.17,North,349,2.0,7.0,96,0.00,,,0.01,VWS V14.01,2013-01-01 16:44:00,
2013-01-01 10:49:00,33.7,32.7,30.16,North,352,2.0,7.0,96,0.00,,,0.01,VWS V14.01,2013-01-01 16:49:00,
2013-01-01 10:54:00,33.7,32.7,30.17,NE,41,6.0,8.0,96,0.00,,,0.01,VWS V14.01,2013-01-01 16:54:00,
2013-01-01 10:59:00,33.8,32.8,30.17,North,354,2.0,8.0,96,0.00,,,0.01,VWS V14.01,2013-01-01 16:59:00,
2013-01-01 11:00:00,32.6,31.6,30.15,North,8,5.0,8.0,96,0.00,,,0.01,VWS V14.01,2013-01-01 17:00:00,
2013-01-01 11:04:00,33.8,32.8,30.17,North,10,2.0,6.0,96,0.00,,,0.01,VWS V14.01,2013-01-01 17:04:00,
2013-01-01 11:09:00,33.6,32.6,30.17,NNW,337,2.0,8.0,96,0.00,,,0.01,VWS V14.01,2013-01-01 17:09:00,
2013-01-01 11:14:00,33.5,32.5,30.17,NNE,28,2.0,8.0,96,0.00,,,0.01,VWS V14.01,2013-01-01 17:14:00,
2013-01-01 11:19:00,33.5,32.5,30.17,NW,315,0.0,8.0,96,0.00,,,0.01,VWS V14.01,2013-01-01 17:19:00,
2013-01-01 11:24:00,33.4,32.4,30.17,NNE,18,4.0,8.0,96,0.00,,,0.01,VWS V14.01,2013-01-01 17:24:00,
2013-01-01 11:29:00,33.3,32.3,30.16,NE,53,4.0,8.0,96,0.00,,,0.01,VWS V14.01,2013-01-01 17:29:00,
2013-01-01 11:34:00,33.2,32.2,30.16,North,8,5.0,8.0,96,0.00,,,0.01,VWS V14.01,2013-01-01 17:34:00,
2013-01-01 11:39:00,33.1,32.1,30.16,NW,319,3.0,8.0,96,0.00,,,0.01,VWS V14.01,2013-01-01 17:39:00,
2013-01-01 11:44:00,33.0,32.0,30.17,WNW,303,0.0,8.0,96,0.00,,,0.01,VWS V14.01,2013-01-01 17:44:00,
2013-01-01 11:49:00,32.8,31.8,30.16,NNE,30,2.0,8.0,96,0.00,,,0.01,VWS V14.01,2013-01-01 17:49:00,
2013-01-01 11:50:00,32.1,31.1,30.15,NNE,22,3.0,4.0,96,0.00,,,0.01,VWS V14.01,2013-01-01 17:50:00,
2013-01-01 11:54:00,32.7,31.7,30.16,West,272,1.0,8.0,96,0.00,,,0.01,VWS V14.01,2013-01-01 17:54:00,
2013-01-01 11:59:00,32.6,31.6,30.15,NNW,335,2.0,8.0,96,0.00,,,0.01,VWS V14.01,2013-01-01 17:59:00,
2013-01-01 12:00:00,32.2,30.9,30.15,NNE,13,2.0,3.0,95,0.00,,,0.01,VWS V14.01,2013-01-01 18:00:00,
2013-01-01 12:04:00,32.4,31.4,30.15,North,349,4.0,8.0,96,0.00,,,0.01,VWS V14.01,2013-01-01 18:04:00,
2013-01-01 12:05:00,32.2,30.9,30.15,NNE,30,3.0,6.0,95,0.00,,,0.01,VWS V14.01,2013-01-01 18:05:00,
2013-01-01 12:09:00,32.4,31.4,30.16,North,11,1.0,8.0,96,0.00,,,0.01,VWS V14.01,2013-01-01 18:09:00,
2013-01-01 12:10:00,32.2,30.9,30.15,WNW,296,6.0,6.0,95,0.00,,,0.01,VWS V14.01,2013-01-01 18:10:00,
2013-01-01 12:14:00,32.4,31.4,30.15,North,1,3.0,8.0,96,0.00,,,0.01,VWS V14.01,2013-01-01 18:14:00,
2013-01-01 12:15:00,32.0,30.7,30.15,NE,43,4.5,4.5,95,0.00,,,0.01,VWS V14.01,2013-01-01 18:15:00,
2013-01-01 12:19:00,32.4,31.4,30.15,NNE,26,3.0,8.0,96,0.00,,,0.01,VWS V14.01,2013-01-01 18:19:00,
2013-01-01 12:20:00,32.0,30.7,30.16,NNW,335,7.5,7.5,95,0.00,,,0.01,VWS V14.01,2013-01-01 18:20:00,
2013-01-01 12:24:00,32.1,31.1,30.15,NE,49,3.0,8.0,96,0.00,,,0.01,VWS V14.01,2013-01-01 18:24:00,
2013-01-01 12:29:00,32.0,31.0,30.15,NNE,17,1.0,8.0,96,0.00,,,0.01,VWS V14.01,2013-01-01 18:29:00,
2013-01-01 12:30:00,31.9,30.6,30.15,NNW,337,1.5,8.0,95,0.00,,,0.01,VWS V14.01,2013-01-01 18:30:00,
2013-01-01 12:34:00,32.0,31.0,30.15,NNE,18,4.0,8.0,96,0.00,,,0.01,VWS V14.01,2013-01-01 18:34:00,
2013-01-01 12:39:00,32.0,30.7,30.15,NE,39,3.0,3.0,95,0.00,,,0.01,VWS V14.01,2013-01-01 18:39:00,
2013-01-01 12:44:00,32.0,31.0,30.15,NNE,23,1.0,6.0,96,0.00,,,0.01,VWS V14.01,2013-01-01 18:44:00,
2013-01-01 12:45:00,31.7,30.4,30.16,NE,37,3.0,7.0,95,0.00,,,0.01,VWS V14.01,2013-01-01 18:45:00,
2013-01-01 12:50:00,31.6,30.3,30.15,NW,326,4.5,4.5,95,0.00,,,0.01,VWS V14.01,2013-01-01 18:50:00,
2013-01-01 12:52:00,32.1,30.8,30.15,NNE,30,5.0,5.0,95,0.00,,,0.01,VWS V14.01,2013-01-01 18:52:00,
2013-01-01 12:58:00,32.2,30.9,30.15,NNE,28,3.0,5.0,95,0.00,,,0.01,Wunderground v.1.15,2013-01-01 18:58:00,
2013-01-01 13:00:00,31.5,30.2,30.16,NNE,13,6.0,6.0,95,0.00,,,0.01,VWS V14.01,2013-01-01 19:00:00,
2013-01-01 13:03:00,32.2,30.9,30.15,NE,36,4.0,5.0,95,0.00,,,0.01,VWS V14.01,2013-01-01 19:03:00,
2013-01-01 13:05:00,31.5,30.2,30.16,NE,49,6.0,6.0,95,0.00,,,0.01,VWS V14.01,2013-01-01 19:05:00,
2013-01-01 13:08:00,32.2,30.9,30.15,North,359,0.0,3.0,95,0.00,,,0.01,VWS V14.01,2013-01-01 19:08:00,
2013-01-01 13:10:00,32.2,30.9,30.15,WNW,296,6.0,6.0,95,0.00,,,0.01,VWS V14.01,2013-01-01 19:10:00,
2013-01-01 13:13:00,32.1,30.8,30.15,NNW,327,1.5,4.0,95,0.00,,,0.01,VWS V14.01,2013-01-01 19:13:00,
2013-01-01 13:15:00,32.0,30.7,30.15,NE,43,4.5,4.5,95,0.00,,,0.01,VWS V14.01,2013-01-01 19:15:00,
2013-01-01 13:18:00,32.0,30.7,30.15,NE,34,4.5,6.0,95,0.00,,,0.01,VWS V14.01,2013-01-01 19:18:00,
2013-01-01 13:20:00,32.0,30.7,30.16,NNW,335,7.5,7.5,95,0.00,,,0.01,VWS V14.01,2013-01-01 19:20:00,
2013-01-01 13:23:00,31.9,30.6,30.16,NNE,23,9.0,9.0,95,0.00,,,0.01,VWS V14.01,2013-01-01 19:23:00,
2013-01-01 13:25:00,31.2,29.9,30.17,NNE,22,3.0,4.0,95,0.00,,,0.01,VWS V14.01,2013-01-01 19:25:00,
2013-01-01 13:28:00,32.0,30.7,30.15,North,357,3.0,8.0,95,0.00,,,0.01,VWS V14.01,2013-01-01 19:28:00,
2013-01-01 13:30:00,31.9,30.6,30.15,NNW,337,1.5,8.0,95,0.00,,,0.01,VWS V14.01,2013-01-01 19:30:00,
2013-01-01 13:33:00,31.9,30.6,30.15,NW,315,1.5,5.0,95,0.00,,,0.01,VWS V14.01,2013-01-01 19:33:00,
2013-01-01 13:35:00,31.0,29.7,30.17,NNW,333,0.0,7.0,95,0.00,,,0.01,VWS V14.01,2013-01-01 19:35:00,
2013-01-01 13:38:00,31.8,30.5,30.15,NNW,330,1.5,5.0,95,0.00,,,0.01,VWS V14.01,2013-01-01 19:38:00,
2013-01-01 13:40:00,30.9,29.6,30.17,North,6,3.0,7.0,95,0.00,,,0.01,VWS V14.01,2013-01-01 19:40:00,
2013-01-01 13:43:00,31.7,30.4,30.16,NNW,336,4.5,5.0,95,0.00,,,0.01,VWS V14.01,2013-01-01 19:43:00,
2013-01-01 13:45:00,31.7,30.4,30.16,NE,37,3.0,7.0,95,0.00,,,0.01,VWS V14.01,2013-01-01 19:45:00,
2013-01-01 13:48:00,31.6,30.3,30.16,North,356,1.5,4.0,95,0.00,,,0.01,VWS V14.01,2013-01-01 19:48:00,
2013-01-01 13:50:00,31.6,30.3,30.15,NW,326,4.5,4.5,95,0.00,,,0.01,VWS V14.01,2013-01-01 19:50:00,
2013-01-01 13:53:00,31.6,30.3,30.15,North,8,3.0,3.0,95,0.00,,,0.01,VWS V14.01,2013-01-01 19:53:00,
2013-01-01 13:55:00,30.1,28.6,30.17,NE,48,6.8,8.0,94,0.00,,,0.01,VWS V14.01,2013-01-01 19:55:00,
2013-01-01 13:58:00,31.5,30.2,30.16,NE,39,1.5,5.0,95,0.00,,,0.01,VWS V14.01,2013-01-01 19:58:00,
2013-01-01 14:00:00,31.5,30.2,30.16,NNE,13,6.0,6.0,95,0.00,,,0.01,VWS V14.01,2013-01-01 20:00:00,
2013-01-01 14:03:00,31.5,30.2,30.16,NNE,25,4.5,5.0,95,0.00,,,0.01,VWS V14.01,2013-01-01 20:03:00,
2013-01-01 14:05:00,31.5,30.2,30.16,NE,49,6.0,6.0,95,0.00,,,0.01,VWS V14.01,2013-01-01 20:05:00,
2013-01-01 14:08:00,31.4,30.1,30.16,North,1,6.0,6.0,95,0.00,,,0.01,VWS V14.01,2013-01-01 20:08:00,
2013-01-01 14:10:00,31.3,30.0,30.16,NNE,28,4.5,6.0,95,0.00,,,0.01,VWS V14.01,2013-01-01 20:10:00,
2013-01-01 14:13:00,31.3,30.0,30.16,NNE,28,6.0,6.0,95,0.00,,,0.01,VWS V14.01,2013-01-01 20:13:00,
2013-01-01 14:15:00,31.3,30.0,30.17,North,8,3.0,5.0,95,0.00,,,0.01,VWS V14.01,2013-01-01 20:15:00,
2013-01-01 14:18:00,31.2,29.9,30.17,NE,44,1.5,3.0,95,0.00,,,0.01,VWS V14.01,2013-01-01 20:18:00,
2013-01-01 14:20:00,31.2,29.9,30.17,NNE,18,1.5,4.0,95,0.00,,,0.01,VWS V14.01,2013-01-01 20:20:00,
2013-01-01 14:23:00,31.3,30.0,30.16,NW,322,1.5,2.0,95,0.00,,,0.01,VWS V14.01,2013-01-01 20:23:00,
2013-01-01 14:25:00,29.9,28.4,30.18,NNE,16,1.8,7.0,94,0.00,,,0.01,VWS V14.01,2013-01-01 20:25:00,
2013-01-01 14:30:00,29.8,28.3,30.18,NNE,25,3.5,5.0,94,0.00,,,0.01,VWS V14.01,2013-01-01 20:30:00,
2013-01-01 14:33:00,31.2,29.9,30.17,NNE,22,3.0,4.0,95,0.00,,,0.01,VWS V14.01,2013-01-01 20:33:00,
2013-01-01 14:35:00,29.8,28.3,30.18,NE,34,1.8,6.0,94,0.00,,,0.01,VWS V14.01,2013-01-01 20:35:00,
2013-01-01 14:38:00,30.9,29.4,30.17,NNE,29,0.0,7.0,94,0.00,,,0.01,VWS V14.01,2013-01-01 20:38:00,
2013-01-01 14:40:00,29.8,28.3,30.18,NNE,23,8.8,8.8,94,0.00,,,0.01,VWS V14.01,2013-01-01 20:40:00,
2013-01-01 14:43:00,30.7,29.2,30.17,WNW,288,1.5,6.0,94,0.00,,,0.01,VWS V14.01,2013-01-01 20:43:00,
2013-01-01 14:45:00,29.8,28.3,30.18,NNW,341,3.5,8.0,94,0.00,,,0.01,VWS V14.01,2013-01-01 20:45:00,
2013-01-01 14:48:00,30.5,29.0,30.17,NNW,340,4.5,4.5,94,0.00,,,0.01,VWS V14.01,2013-01-01 20:48:00,
2013-01-01 14:50:00,29.7,27.9,30.19,North,352,1.8,5.0,93,0.00,,,0.01,VWS V14.01,2013-01-01 20:50:00,
2013-01-01 14:53:00,30.3,28.8,30.17,North,9,10.5,10.5,94,0.00,,,0.01,VWS V14.01,2013-01-01 20:53:00,
2013-01-01 14:55:00,29.7,28.2,30.19,NNW,343,3.5,5.0,94,0.00,,,0.01,VWS V14.01,2013-01-01 20:55:00,
2013-01-01 14:58:00,30.0,28.5,30.17,NNW,338,11.2,11.2,94,0.00,,,0.01,VWS V14.01,2013-01-01 20:58:00,
2013-01-01 15:00:00,29.7,28.2,30.18,North,5,3.5,6.0,94,0.00,,,0.01,VWS V14.01,2013-01-01 21:00:00,
2013-01-01 15:03:00,29.9,28.4,30.18,NNE,28,0.0,5.0,94,0.00,,,0.01,VWS V14.01,2013-01-01 21:03:00,
2013-01-01 15:05:00,29.7,28.2,30.19,NNW,345,5.2,6.0,94,0.00,,,0.01,VWS V14.01,2013-01-01 21:05:00,
2013-01-01 15:08:00,29.9,28.4,30.17,NE,40,0.0,4.0,94,0.00,,,0.01,VWS V14.01,2013-01-01 21:08:00,
2013-01-01 15:10:00,29.7,28.2,30.20,NNE,18,3.5,4.0,94,0.00,,,0.01,VWS V14.01,2013-01-01 21:10:00,
2013-01-01 15:13:00,29.9,28.4,30.18,NW,312,0.0,4.0,94,0.00,,,0.01,VWS V14.01,2013-01-01 21:13:00,
2013-01-01 15:15:00,29.7,28.2,30.20,NNE,27,1.8,4.0,94,0.00,,,0.01,VWS V14.01,2013-01-01 21:15:00,
2013-01-01 15:18:00,29.9,28.6,30.18,NNE,27,3.5,6.0,95,0.00,,,0.01,VWS V14.01,2013-01-01 21:18:00,
2013-01-01 15:20:00,29.7,28.2,30.20,NNW,344,3.5,5.0,94,0.00,,,0.01,VWS V14.01,2013-01-01 21:20:00,
2013-01-01 15:23:00,29.9,28.4,30.18,North,354,1.8,7.0,94,0.00,,,0.01,VWS V14.01,2013-01-01 21:23:00,
2013-01-01 15:25:00,29.8,28.3,30.19,NNE,28,5.2,5.2,94,0.00,,,0.01,VWS V14.01,2013-01-01 21:25:00,
2013-01-01 15:28:00,29.8,28.3,30.18,NNE,19,3.5,4.0,94,0.00,,,0.01,VWS V14.01,2013-01-01 21:28:00,
2013-01-01 15:30:00,29.8,28.3,30.20,North,352,7.0,7.0,94,0.00,,,0.01,VWS V14.01,2013-01-01 21:30:00,
2013-01-01 15:33:00,29.8,28.3,30.18,North,4,3.5,6.0,94,0.00,,,0.01,VWS V14.01,2013-01-01 21:33:00,
2013-01-01 15:35:00,29.8,28.3,30.18,NE,34,1.8,6.0,94,0.00,,,0.01,VWS V15.00,2013-01-01 21:35:00,
2013-01-01 15:38:00,29.9,28.4,30.18,North,356,1.8,3.0,94,0.00,,,0.01,VWS V14.01,2013-01-01 21:38:00,
2013-01-01 15:40:00,29.7,27.9,30.20,NNE,22,3.5,8.0,93,0.00,,,0.01,VWS V14.01,2013-01-01 21:40:00,
2013-01-01 15:43:00,29.8,28.0,30.18,NNE,30,5.2,8.0,93,0.00,,,0.01,VWS V14.01,2013-01-01 21:43:00,
2013-01-01 15:45:00,29.8,28.3,30.18,NNW,341,3.5,8.0,94,0.00,,,0.01,VWS V15.00,2013-01-01 21:45:00,
2013-01-01 15:48:00,29.7,28.2,30.19,NE,39,7.0,7.0,94,0.00,,,0.01,VWS V14.01,2013-01-01 21:48:00,
2013-01-01 15:50:00,29.7,27.9,30.20,NNE,18,3.5,6.0,93,0.00,,,0.01,VWS V14.01,2013-01-01 21:50:00,
2013-01-01 15:52:00,29.7,28.2,30.18,NNE,31,1.8,4.0,94,0.00,,,0.01,VWS V14.01,2013-01-01 21:52:00,
2013-01-01 15:55:00,29.7,28.2,30.19,NNW,343,3.5,5.0,94,0.00,,,0.01,VWS V15.00,2013-01-01 21:55:00,
2013-01-01 15:57:00,29.7,28.2,30.19,NNE,15,3.5,4.0,94,0.00,,,0.01,VWS V14.01,2013-01-01 21:57:00,
2013-01-01 16:00:00,29.6,27.8,30.20,North,352,3.5,5.0,93,0.00,,,0.01,VWS V14.01,2013-01-01 22:00:00,
2013-01-01 16:02:00,29.7,28.2,30.19,North,360,3.5,6.0,94,0.00,,,0.01,VWS V14.01,2013-01-01 22:02:00,
2013-01-01 16:05:00,29.7,28.2,30.19,NNW,345,5.2,6.0,94,0.00,,,0.01,VWS V15.00,2013-01-01 22:05:00,
2013-01-01 16:07:00,29.7,28.2,30.20,NNW,336,5.2,5.2,94,0.00,,,0.01,VWS V14.01,2013-01-01 22:07:00,
2013-01-01 16:10:00,29.5,28.0,30.20,North,355,7.0,7.0,94,0.00,,,0.01,VWS V14.01,2013-01-01 22:10:00,
2013-01-01 16:12:00,29.7,28.2,30.19,NNE,26,1.8,4.0,94,0.00,,,0.01,VWS V14.01,2013-01-01 22:12:00,
2013-01-01 16:15:00,29.7,28.2,30.20,NNE,27,1.8,4.0,94,0.00,,,0.01,VWS V15.00,2013-01-01 22:15:00,
2013-01-01 16:17:00,29.7,28.2,30.20,NNE,20,3.5,5.0,94,0.00,,,0.01,VWS V14.01,2013-01-01 22:17:00,
2013-01-01 16:20:00,29.5,27.7,30.20,North,359,3.5,6.0,93,0.00,,,0.01,VWS V14.01,2013-01-01 22:20:00,
2013-01-01 16:22:00,29.7,28.2,30.20,NE,41,1.8,4.0,94,0.00,,,0.01,VWS V14.01,2013-01-01 22:22:00,
2013-01-01 16:25:00,29.8,28.3,30.19,NNE,28,5.2,5.2,94,0.00,,,0.01,VWS V15.00,2013-01-01 22:25:00,
2013-01-01 16:27:00,29.8,28.3,30.20,NE,53,7.0,7.0,94,0.00,,,0.01,VWS V14.01,2013-01-01 22:27:00,
2013-01-01 16:30:00,29.4,27.9,30.20,NNE,13,8.8,8.8,94,0.00,,,0.01,VWS V14.01,2013-01-01 22:30:00,
2013-01-01 16:32:00,29.8,28.0,30.20,North,360,3.5,5.0,93,0.00,,,0.01,VWS V14.01,2013-01-01 22:32:00,
2013-01-01 16:37:00,29.7,27.9,30.20,NNW,345,5.2,8.0,93,0.00,,,0.01,VWS V14.01,2013-01-01 22:37:00,
2013-01-01 16:40:00,29.3,27.5,30.20,NNE,20,3.5,5.0,93,0.00,,,0.01,VWS V14.01,2013-01-01 22:40:00,
2013-01-01 16:42:00,29.7,27.9,30.20,North,3,5.2,6.0,93,0.00,,,0.01,VWS V14.01,2013-01-01 22:42:00,
2013-01-01 16:47:00,29.7,27.9,30.20,NNE,33,1.8,6.0,93,0.00,,,0.01,VWS V14.01,2013-01-01 22:47:00,
2013-01-01 16:50:00,29.3,27.5,30.20,North,359,8.8,8.8,93,0.00,,,0.01,VWS V14.01,2013-01-01 22:50:00,
2013-01-01 16:52:00,29.7,28.2,30.20,NNW,332,5.2,5.2,94,0.00,,,0.01,VWS V14.01,2013-01-01 22:52:00,
2013-01-01 16:57:00,29.7,28.2,30.20,NNW,333,3.5,5.0,94,0.00,,,0.01,VWS V14.01,2013-01-01 22:57:00,
2013-01-01 17:00:00,29.3,27.5,30.20,North,6,3.5,5.0,93,0.00,,,0.01,VWS V14.01,2013-01-01 23:00:00,
2013-01-01 17:02:00,29.6,27.8,30.20,NNW,329,1.8,5.0,93,0.00,,,0.01,VWS V14.01,2013-01-01 23:02:00,
2013-01-01 17:07:00,29.5,28.0,30.19,North,4,3.5,6.0,94,0.00,,,0.01,VWS V14.01,2013-01-01 23:07:00,
2013-01-01 17:10:00,29.3,27.5,30.21,North,354,3.5,4.0,93,0.00,,,0.01,VWS V14.01,2013-01-01 23:10:00,
2013-01-01 17:12:00,29.5,27.7,30.19,ENE,60,3.5,5.0,93,0.00,,,0.01,VWS V14.01,2013-01-01 23:12:00,
2013-01-01 17:17:00,29.5,28.0,30.19,NNE,33,3.5,5.0,94,0.00,,,0.01,VWS V14.01,2013-01-01 23:17:00,
2013-01-01 17:20:00,29.1,27.3,30.21,NNE,33,0.0,6.0,93,0.00,,,0.01,VWS V14.01,2013-01-01 23:20:00,
2013-01-01 17:22:00,29.5,28.0,30.20,NNE,22,5.2,5.2,94,0.00,,,0.01,VWS V14.01,2013-01-01 23:22:00,
2013-01-01 17:27:00,29.5,28.0,30.20,NNE,26,5.2,5.2,94,0.00,,,0.01,VWS V14.01,2013-01-01 23:27:00,
2013-01-01 17:30:00,29.1,27.3,30.22,North,360,1.8,5.0,93,0.00,,,0.01,VWS V14.01,2013-01-01 23:30:00,
2013-01-01 17:32:00,29.4,27.9,30.20,NNW,339,3.5,5.0,94,0.00,,,0.01,VWS V14.01,2013-01-01 23:32:00,
2013-01-01 17:37:00,29.4,27.6,30.20,ENE,78,7.0,7.0,93,0.00,,,0.01,VWS V14.01,2013-01-01 23:37:00,
2013-01-01 17:40:00,29.0,27.0,30.22,North,360,1.8,6.0,92,0.00,,,0.01,VWS V14.01,2013-01-01 23:40:00,
2013-01-01 17:42:00,29.3,27.5,30.20,NNE,25,3.5,4.0,93,0.00,,,0.01,VWS V14.01,2013-01-01 23:42:00,
2013-01-01 17:47:00,29.3,27.5,30.20,North,6,3.5,4.0,93,0.00,,,0.01,VWS V14.01,2013-01-01 23:47:00,
2013-01-01 17:50:00,28.9,27.1,30.22,NNE,31,3.5,7.0,93,0.00,,,0.01,VWS V14.01,2013-01-01 23:50:00,
2013-01-01 17:52:00,29.3,27.5,30.19,North,349,3.5,5.0,93,0.00,,,0.01,VWS V14.01,2013-01-01 23:52:00,
2013-01-01 17:57:00,29.2,27.4,30.20,NNW,344,3.5,5.0,93,0.00,,,0.01,VWS V14.01,2013-01-01 23:57:00,
2013-01-01 18:00:00,28.7,26.7,30.22,WNW,300,3.5,5.0,92,0.00,,,0.01,VWS V14.01,2013-01-02 00:00:00,
2013-01-01 18:02:00,29.3,27.5,30.21,NW,319,1.8,4.0,93,0.00,,,0.01,VWS V14.01,2013-01-02 00:02:00,
2013-01-01 18:07:00,29.3,27.8,30.21,WNW,300,1.8,4.0,94,0.00,,,0.01,VWS V14.01,2013-01-02 00:07:00,
2013-01-01 18:10:00,28.6,26.8,30.23,NNE,13,3.5,3.5,93,0.00,,,0.01,VWS V14.01,2013-01-02 00:10:00,
2013-01-01 18:12:00,29.3,27.5,30.21,NE,45,3.5,5.0,93,0.00,,,0.01,VWS V14.01,2013-01-02 00:12:00,
2013-01-01 18:17:00,29.2,27.4,30.21,NNE,16,3.5,6.0,93,0.00,,,0.01,VWS V14.01,2013-01-02 00:17:00,
2013-01-01 18:20:00,28.6,26.8,30.23,NNW,335,3.5,4.0,93,0.00,,,0.01,VWS V14.01,2013-01-02 00:20:00,
2013-01-01 18:22:00,29.2,27.4,30.21,NNE,31,3.5,4.0,93,0.00,,,0.01,VWS V14.01,2013-01-02 00:22:00,
2013-01-01 18:27:00,29.1,27.3,30.21,NW,322,7.0,7.0,93,0.00,,,0.01,VWS V14.01,2013-01-02 00:27:00,
2013-01-01 18:30:00,28.6,26.8,30.23,NW,326,3.5,4.0,93,0.00,,,0.01,VWS V14.01,2013-01-02 00:30:00,
2013-01-01 18:32:00,29.1,27.3,30.21,North,360,5.2,5.2,93,0.00,,,0.01,VWS V14.01,2013-01-02 00:32:00,
2013-01-01 18:37:00,29.0,27.2,30.21,North,8,5.2,6.0,93,0.00,,,0.01,VWS V14.01,2013-01-02 00:37:00,
2013-01-01 18:40:00,28.5,26.7,30.24,NNE,19,1.8,3.0,93,0.00,,,0.01,VWS V14.01,2013-01-02 00:40:00,
2013-01-01 18:42:00,28.9,27.1,30.21,NNE,15,3.5,7.0,93,0.00,,,0.01,VWS V14.01,2013-01-02 00:42:00,
2013-01-01 18:47:00,28.9,27.1,30.21,NNW,338,3.5,7.0,93,0.00,,,0.01,VWS V14.01,2013-01-02 00:47:00,
2013-01-01 18:50:00,28.4,26.6,30.24,West,267,1.8,4.0,93,0.00,,,0.01,VWS V14.01,2013-01-02 00:50:00,
2013-01-01 18:52:00,28.8,27.0,30.22,North,11,3.5,3.5,93,0.00,,,0.01,VWS V14.01,2013-01-02 00:52:00,
2013-01-01 18:57:00,28.8,27.0,30.21,NW,316,0.0,3.0,93,0.00,,,0.01,VWS V14.01,2013-01-02 00:57:00,
2013-01-01 19:00:00,28.5,26.5,30.25,NNE,14,3.5,5.0,92,0.00,,,0.01,VWS V14.01,2013-01-02 01:00:00,
2013-01-01 19:02:00,28.7,26.9,30.22,North,358,1.8,3.0,93,0.00,,,0.01,VWS V14.01,2013-01-02 01:02:00,
2013-01-01 19:07:00,28.6,26.8,30.22,NNE,30,1.8,3.0,93,0.00,,,0.01,VWS V14.01,2013-01-02 01:07:00,
2013-01-01 19:10:00,28.6,26.8,30.23,NNE,13,3.5,3.5,93,0.00,,,0.01,VWS V15.00,2013-01-02 01:10:00,
2013-01-01 19:12:00,28.6,26.8,30.23,NE,37,0.0,2.0,93,0.00,,,0.01,VWS V14.01,2013-01-02 01:12:00,
2013-01-01 19:17:00,28.6,26.8,30.23,WNW,295,5.2,5.2,93,0.00,,,0.01,VWS V14.01,2013-01-02 01:17:00,
2013-01-01 19:20:00,28.3,26.3,30.24,North,1,0.0,3.0,92,0.00,,,0.01,VWS V14.01,2013-01-02 01:20:00,
2013-01-01 19:22:00,28.6,26.8,30.23,NNW,340,1.8,2.0,93,0.00,,,0.01,VWS V14.01,2013-01-02 01:22:00,
2013-01-01 19:27:00,28.6,26.8,30.24,NW,319,0.0,3.0,93,0.00,,,0.01,VWS V14.01,2013-01-02 01:27:00,
2013-01-01 19:30:00,28.2,26.2,30.23,NNE,25,5.2,6.0,92,0.00,,,0.01,VWS V14.01,2013-01-02 01:30:00,
2013-01-01 19:32:00,28.5,26.7,30.24,North,351,5.2,5.2,93,0.00,,,0.01,VWS V14.01,2013-01-02 01:32:00,
2013-01-01 19:37:00,28.5,26.7,30.24,WNW,288,3.5,3.5,93,0.00,,,0.01,VWS V14.01,2013-01-02 01:37:00,
2013-01-01 19:40:00,28.1,26.1,30.22,NE,34,5.2,5.2,92,0.00,,,0.01,VWS V14.01,2013-01-02 01:40:00,
2013-01-01 19:42:00,28.5,26.7,30.24,NNE,18,5.2,5.2,93,0.00,,,0.01,VWS V14.01,2013-01-02 01:42:00,
2013-01-01 19:47:00,28.5,26.7,30.24,North,352,3.5,4.0,93,0.00,,,0.01,VWS V14.01,2013-01-02 01:47:00,
2013-01-01 19:50:00,27.9,25.9,30.21,NNE,33,3.5,6.0,92,0.00,,,0.01,VWS V14.01,2013-01-02 01:50:00,
2013-01-01 19:52:00,28.5,26.7,30.24,NNE,26,0.0,3.0,93,0.00,,,0.01,VWS V14.01,2013-01-02 01:52:00,
2013-01-01 19:57:00,28.5,26.7,30.25,WNW,295,5.2,5.2,93,0.00,,,0.01,VWS V14.01,2013-01-02 01:57:00,
2013-01-01 20:00:00,27.9,25.9,30.22,North,1,1.8,4.0,92,0.00,,,0.01,VWS V14.01,2013-01-02 02:00:00,
2013-01-01 20:02:00,28.5,26.5,30.25,North,10,3.5,3.5,92,0.00,,,0.01,VWS V14.01,2013-01-02 02:02:00,
2013-01-01 20:07:00,28.4,26.4,30.24,NNW,329,1.8,3.0,92,0.00,,,0.01,VWS V14.01,2013-01-02 02:07:00,
2013-01-01 20:10:00,27.8,25.5,30.22,NNE,33,5.2,6.0,91,0.00,,,0.01,VWS V14.01,2013-01-02 02:10:00,
2013-01-01 20:12:00,28.4,26.4,30.24,NW,319,3.5,3.5,92,0.00,,,0.01,VWS V14.01,2013-01-02 02:12:00,
2013-01-01 20:17:00,28.3,26.3,30.24,North,352,1.8,3.0,92,0.00,,,0.01,VWS V14.01,2013-01-02 02:17:00,
2013-01-01 20:20:00,27.7,25.7,30.23,NNE,32,1.8,4.0,92,0.00,,,0.01,VWS V14.01,2013-01-02 02:20:00,
2013-01-01 20:22:00,28.2,26.2,30.23,NNE,18,0.0,3.0,92,0.00,,,0.01,VWS V14.01,2013-01-02 02:22:00,
2013-01-01 20:27:00,28.2,26.2,30.23,NNW,340,3.5,4.0,92,0.00,,,0.01,VWS V14.01,2013-01-02 02:27:00,
2013-01-01 20:30:00,27.7,25.7,30.23,NNE,18,0.0,4.0,92,0.00,,,0.01,VWS V14.01,2013-01-02 02:30:00,
2013-01-01 20:32:00,28.2,26.2,30.23,North,8,5.2,5.2,92,0.00,,,0.01,VWS V14.01,2013-01-02 02:32:00,
2013-01-01 20:37:00,28.1,26.1,30.22,North,10,5.2,5.2,92,0.00,,,0.01,VWS V14.01,2013-01-02 02:37:00,
2013-01-01 20:40:00,27.6,25.6,30.23,North,356,7.0,7.0,92,0.00,,,0.01,VWS V14.01,2013-01-02 02:40:00,
2013-01-01 20:42:00,28.1,26.1,30.22,NE,51,3.5,3.5,92,0.00,,,0.01,VWS V14.01,2013-01-02 02:42:00,
2013-01-01 20:47:00,28.0,26.0,30.21,NE,37,7.0,7.0,92,0.00,,,0.01,VWS V14.01,2013-01-02 02:47:00,
2013-01-01 20:50:00,27.5,25.5,30.23,NNE,28,1.8,4.0,92,0.00,,,0.01,VWS V14.01,2013-01-02 02:50:00,
2013-01-01 20:52:00,27.9,25.9,30.21,NNE,30,3.5,3.5,92,0.00,,,0.01,VWS V14.01,2013-01-02 02:52:00,
2013-01-01 20:57:00,27.9,25.9,30.21,NNE,27,7.0,7.0,92,0.00,,,0.01,VWS V14.01,2013-01-02 02:57:00,
2013-01-01 21:00:00,27.4,25.4,30.23,NNE,20,7.0,7.0,92,0.00,,,0.01,VWS V14.01,2013-01-02 03:00:00,
2013-01-01 21:02:00,27.9,25.9,30.22,North,8,5.2,5.2,92,0.00,,,0.01,VWS V14.01,2013-01-02 03:02:00,
2013-01-01 21:07:00,27.9,25.9,30.22,NNE,21,5.2,6.0,92,0.00,,,0.01,VWS V14.01,2013-01-02 03:07:00,
2013-01-01 21:10:00,27.1,25.1,30.24,North,3,0.0,6.0,92,0.00,,,0.01,VWS V14.01,2013-01-02 03:10:00,
2013-01-01 21:12:00,27.7,25.7,30.22,NNE,27,3.5,4.0,92,0.00,,,0.01,VWS V14.01,2013-01-02 03:12:00,
2013-01-01 21:17:00,27.7,25.7,30.22,NNE,22,1.8,4.0,92,0.00,,,0.01,VWS V14.01,2013-01-02 03:17:00,
2013-01-01 21:20:00,27.1,25.4,30.24,NNW,331,3.5,4.0,93,0.00,,,0.01,VWS V14.01,2013-01-02 03:20:00,
2013-01-01 21:22:00,27.7,25.7,30.23,NNE,25,1.8,3.0,92,0.00,,,0.01,VWS V14.01,2013-01-02 03:22:00,
2013-01-01 21:27:00,27.7,25.7,30.23,NNE,32,1.8,4.0,92,0.00,,,0.01,VWS V14.01,2013-01-02 03:27:00,
2013-01-01 21:30:00,27.0,25.2,30.24,NNW,335,0.0,6.0,93,0.00,,,0.01,VWS V14.01,2013-01-02 03:30:00,
2013-01-01 21:32:00,27.7,25.9,30.23,North,8,0.0,1.0,93,0.00,,,0.01,VWS V14.01,2013-01-02 03:32:00,
2013-01-01 21:37:00,27.7,25.7,30.23,NE,34,5.2,5.2,92,0.00,,,0.01,VWS V14.01,2013-01-02 03:37:00,
2013-01-01 21:40:00,26.9,25.1,30.24,NNE,20,1.8,2.0,93,0.00,,,0.01,VWS V14.01,2013-01-02 03:40:00,
2013-01-01 21:42:00,27.6,25.6,30.23,NW,308,1.8,4.0,92,0.00,,,0.01,VWS V14.01,2013-01-02 03:42:00,
2013-01-01 21:47:00,27.5,25.5,30.23,NNW,345,5.2,5.2,92,0.00,,,0.01,VWS V14.01,2013-01-02 03:47:00,
2013-01-01 21:50:00,26.8,25.0,30.24,NNW,345,3.5,5.0,93,0.00,,,0.01,VWS V14.01,2013-01-02 03:50:00,
2013-01-01 21:52:00,27.4,25.4,30.23,NNE,23,3.5,4.0,92,0.00,,,0.01,VWS V14.01,2013-01-02 03:52:00,
2013-01-01 21:57:00,27.4,25.4,30.23,NNE,27,3.5,5.0,92,0.00,,,0.01,VWS V14.01,2013-01-02 03:57:00,
2013-01-01 22:00:00,26.6,24.9,30.24,NNW,346,5.2,8.0,93,0.00,,,0.01,VWS V14.01,2013-01-02 04:00:00,
2013-01-01 22:02:00,27.3,25.3,30.23,NNE,18,7.0,7.0,92,0.00,,,0.01,VWS V14.01,2013-01-02 04:02:00,
2013-01-01 22:07:00,27.1,25.1,30.23,NNW,343,0.0,6.0,92,0.00,,,0.01,VWS V14.01,2013-01-02 04:07:00,
2013-01-01 22:10:00,26.2,24.2,30.23,NNW,340,3.5,7.0,92,0.00,,,0.01,VWS V14.01,2013-01-02 04:10:00,
2013-01-01 22:12:00,27.1,25.1,30.24,NE,43,3.5,4.0,92,0.00,,,0.01,VWS V14.01,2013-01-02 04:12:00,
2013-01-01 22:17:00,27.1,25.4,30.24,NNE,27,0.0,4.0,93,0.00,,,0.01,VWS V14.01,2013-01-02 04:17:00,
2013-01-01 22:20:00,25.9,23.9,30.23,NNW,343,1.8,5.0,92,0.00,,,0.01,VWS V14.01,2013-01-02 04:20:00,
2013-01-01 22:22:00,27.1,25.1,30.24,NE,53,1.8,5.0,92,0.00,,,0.01,VWS V14.01,2013-01-02 04:22:00,
2013-01-01 22:27:00,27.0,25.2,30.24,NE,41,8.8,8.8,93,0.00,,,0.01,VWS V14.01,2013-01-02 04:27:00,
2013-01-01 22:30:00,25.6,23.9,30.23,NNE,27,8.8,8.8,93,0.00,,,0.01,VWS V14.01,2013-01-02 04:30:00,
2013-01-01 22:32:00,27.0,25.2,30.24,NNW,337,0.0,0.0,93,0.00,,,0.01,VWS V14.01,2013-01-02 04:32:00,
2013-01-01 22:37:00,27.0,25.2,30.24,North,3,1.8,2.0,93,0.00,,,0.01,VWS V14.01,2013-01-02 04:37:00,
2013-01-01 22:40:00,26.9,25.1,30.24,NNE,20,1.8,2.0,93,0.00,,,0.01,VWS V15.00,2013-01-02 04:40:00,
2013-01-01 22:42:00,26.9,25.1,30.24,North,352,0.0,1.0,93,0.00,,,0.01,VWS V14.01,2013-01-02 04:42:00,
2013-01-01 22:47:00,26.9,25.1,30.24,NNE,25,1.8,5.0,93,0.00,,,0.01,VWS V14.01,2013-01-02 04:47:00,
2013-01-01 22:50:00,25.4,23.7,30.24,NE,41,3.5,6.0,93,0.00,,,0.01,VWS V14.01,2013-01-02 04:50:00,
2013-01-01 22:52:00,26.8,25.0,30.24,NNE,14,5.2,5.2,93,0.00,,,0.01,VWS V14.01,2013-01-02 04:52:00,
2013-01-01 22:57:00,26.7,25.0,30.24,NNE,32,0.0,8.0,93,0.00,,,0.01,VWS V14.01,2013-01-02 04:57:00,
2013-01-01 23:00:00,26.6,24.9,30.24,NNE,19,7.0,8.0,93,0.00,,,0.01,VWS V14.01,2013-01-02 05:00:00,
2013-01-01 23:01:00,26.5,24.5,30.23,NNW,337,3.5,3.5,92,0.00,,,0.01,VWS V14.01,2013-01-02 05:01:00,
2013-01-01 23:06:00,26.3,24.3,30.23,NE,45,8.8,8.8,92,0.00,,,0.01,VWS V14.01,2013-01-02 05:06:00,
2013-01-01 23:10:00,25.4,23.7,30.23,NE,46,1.8,5.0,93,0.00,,,0.00,VWS V14.01,2013-01-02 05:10:00,
2013-01-01 23:11:00,26.1,24.4,30.23,NE,40,3.5,3.5,93,0.00,,,0.01,VWS V14.01,2013-01-02 05:11:00,
2013-01-01 23:16:00,26.1,24.4,30.23,NNE,16,5.2,5.2,93,0.00,,,0.01,VWS V14.01,2013-01-02 05:16:00,
2013-01-01 23:20:00,25.4,23.7,30.23,NNE,30,0.0,3.0,93,0.00,,,0.00,VWS V14.01,2013-01-02 05:20:00,
2013-01-01 23:21:00,25.9,24.2,30.23,NE,36,5.2,5.2,93,0.00,,,0.01,VWS V14.01,2013-01-02 05:21:00,
2013-01-01 23:26:00,25.8,24.1,30.23,NE,50,1.8,4.0,93,0.00,,,0.01,VWS V14.01,2013-01-02 05:26:00,
2013-01-01 23:30:00,25.4,23.7,30.23,North,352,0.0,3.0,93,0.00,,,0.00,VWS V14.01,2013-01-02 05:30:00,
2013-01-01 23:31:00,25.6,23.9,30.23,NE,49,3.5,5.0,93,0.00,,,0.01,VWS V14.01,2013-01-02 05:31:00,
2013-01-01 23:36:00,25.5,23.8,30.22,North,6,5.2,5.2,93,0.00,,,0.01,VWS V14.01,2013-01-02 05:36:00,
2013-01-01 23:40:00,25.3,23.6,30.24,East,80,0.0,3.0,93,0.00,,,0.00,VWS V14.01,2013-01-02 05:40:00,
2013-01-01 23:41:00,25.4,23.7,30.23,North,360,3.5,6.0,93,0.00,,,0.01,VWS V14.01,2013-01-02 05:41:00,
2013-01-01 23:46:00,25.4,23.7,30.23,NE,41,1.8,6.0,93,0.00,,,0.01,VWS V14.01,2013-01-02 05:46:00,
2013-01-01 23:50:00,25.5,23.8,30.24,ENE,75,0.0,1.0,93,0.00,,,0.00,VWS V14.01,2013-01-02 05:50:00,
2013-01-01 23:51:00,25.4,23.9,30.24,NW,305,0.0,2.0,94,0.00,,,0.01,VWS V14.01,2013-01-02 05:51:00,
2013-01-01 23:56:00,25.5,24.0,30.24,North,9,0.0,2.0,94,0.00,,,0.01,VWS V14.01,2013-01-02 05:56:00,